Redmond, OR

9:43 AM PDT on June 29, 2017 (GMT -0700)
Roberts Field Airport

Weather History for KRDM - November, 2012

Change the Weather History Date:

Tuesday, November 6, 2012

  Actual Average Record
Temperature  
Mean Temperature 57 °F 40 °F  
Max Temperature 75 °F 53 °F 75 °F (2012)
Min Temperature 38 °F 28 °F 8 °F (1971)
Degree Days  
Heating Degree Days 8 24  
Month to date heating degree days 86 141  
Since 1 July heating degree days 891 1086  
Cooling Degree Days 0 0  
Month to date cooling degree days 0 0  
Year to date cooling degree days 206 222  
Growing Degree Days 5 (Base 50)    
Moisture  
Dew Point 38 °F    
Average Humidity 59    
Maximum Humidity 92    
Minimum Humidity 25    
Precipitation  
Precipitation 0.00 in 0.03 in 0.15 in (1997)
Month to date precipitation 0.04 0.18  
Year to date precipitation 9.09 6.96  
Sea Level Pressure  
Sea Level Pressure 30.05 in    
Wind  
Wind Speed 5 mph (SE)    
Max Wind Speed 18 mph    
Max Gust Speed 24 mph    
Visibility 10 miles    
Events      
T = Trace of Precipitation, MM = Missing Value Source: NWS Daily Summary

Daily Weather History Graph

Daily Weather History Graph

Search for Another Location

Airport or City:

Trip Planner

Search our weather history database for the weather conditions in past years. The results will help you decide how hot, cold, wet, or windy it might be!

Date:

Astronomy

Nov. 06, 2012 Rise Set
Actual Time 6:49 AM PST 4:46 PM PST
Civil Twilight 6:18 AM PST 5:17 PM PST
Nautical Twilight 5:43 AM PST 5:52 PM PST
Astronomical Twilight 5:09 AM PST 6:25 PM PST
Moon 11:34 PM PST (11/6) 12:41 PM PST (11/6)
Length of Visible Light 10h 59m
Length of Day
9h 57m
Waning Gibbous, 52% of the Moon is Illuminated
Nov 6
Waning Gibbous
Nov 6
Last Quarter
Nov 13
New
Nov 20
First Quarter
Nov 28
Full

Hourly Weather History & Observations

Time (PST) Temp. Windchill Dew Point Humidity Pressure Visibility Wind Dir Wind Speed Gust Speed Precip Events Conditions
12:56 AM 37.9 °F 35.5 °F 36.0 °F 93% 30.18 in 10.0 mi ESE 3.5 mph - N/A   Clear
1:56 AM 45.0 °F 42.6 °F 37.9 °F 76% 30.16 in 10.0 mi East 4.6 mph - N/A   Clear
2:56 AM 42.1 °F 38.4 °F 37.0 °F 82% 30.14 in 10.0 mi ESE 5.8 mph - N/A   Clear
3:56 AM 46.0 °F 44.8 °F 39.0 °F 76% 30.12 in 10.0 mi East 3.5 mph - N/A   Clear
4:56 AM 46.0 °F 43.9 °F 37.9 °F 73% 30.12 in 10.0 mi East 4.6 mph - N/A   Clear
5:56 AM 43.0 °F 40.3 °F 36.0 °F 76% 30.13 in 10.0 mi ESE 4.6 mph - N/A   Clear
6:56 AM 48.9 °F - 37.0 °F 64% 30.13 in 10.0 mi South 9.2 mph - N/A   Clear
7:56 AM 55.9 °F - 37.9 °F 51% 30.12 in 10.0 mi ESE 4.6 mph - N/A   Clear
8:56 AM 60.1 °F - 37.0 °F 42% 30.10 in 10.0 mi SE 5.8 mph - N/A   Clear
9:56 AM 66.0 °F - 36.0 °F 33% 30.08 in 10.0 mi SSE 10.4 mph - N/A   Clear
10:56 AM 68.0 °F - 37.0 °F 32% 30.06 in 10.0 mi Variable 3.5 mph - N/A   Clear
11:56 AM 72.0 °F - 37.0 °F 28% 30.01 in 10.0 mi South 11.5 mph - N/A   Clear
12:56 PM 73.0 °F - 36.0 °F 26% 30.00 in 10.0 mi Calm Calm - N/A   Clear
2:56 PM 72.0 °F - 37.9 °F 29% 29.99 in 10.0 mi WNW 17.3 mph 24.2 mph N/A   Clear
3:56 PM 69.1 °F - 41.0 °F 36% 29.98 in 10.0 mi WNW 11.5 mph - N/A   Clear
4:56 PM 63.0 °F - 41.0 °F 45% 29.99 in 10.0 mi WNW 6.9 mph - N/A   Clear
5:56 PM 52.0 °F - 39.9 °F 63% 30.01 in 10.0 mi SE 3.5 mph - N/A   Clear
6:56 PM 51.1 °F - 39.9 °F 66% 30.01 in 10.0 mi WNW 3.5 mph - N/A   Clear
7:56 PM 51.1 °F - 41.0 °F 68% 29.99 in 10.0 mi Calm Calm - N/A   Clear
8:56 PM 48.0 °F - 39.0 °F 71% 30.00 in 10.0 mi Calm Calm - N/A   Clear
9:56 PM 46.0 °F - 39.0 °F 76% 29.99 in 10.0 mi Calm Calm - N/A   Partly Cloudy
10:56 PM 46.9 °F - 39.9 °F 77% 29.98 in 10.0 mi Calm Calm - N/A   Clear
11:56 PM 45.0 °F - 39.0 °F 80% 29.97 in 10.0 mi Calm Calm - N/A   Clear